When you browse on this site, cookies collect data to enhance your experience and personalize the content and advertising you see.
Visit our Privacy Policy to learn more. By continuing to use the site, you agree to this use of cookies and data.

Hourly Weather Durham

Today, 25 September, Friday

Time Temperature Precipitation Wind Pressure Humidity
00:00 +8°C° 0.2 mm 7 mps 743 mmHg 84%
01:00 +6°C° 0.1 mm 7 mps 743 mmHg 83%
02:00 +6°C° 0.1 mm 8 mps 744 mmHg 83%
03:00 +5°C° 0.1 mm 8 mps 744 mmHg 83%
04:00 +5°C° 0.1 mm 8 mps 744 mmHg 83%
05:00 +5°C° 0.1 mm 8 mps 745 mmHg 83%
06:00 +5°C° 0.1 mm 9 mps 745 mmHg 84%
07:00 +6°C° 0.1 mm 9 mps 746 mmHg 81%
08:00 +6°C° 0.1 mm 10 mps 746 mmHg 79%
09:00 +7°C° 0.1 mm 11 mps 747 mmHg 76%
10:00 +8°C° 0.2 mm 11 mps 747 mmHg 73%
11:00 +9°C° 0.2 mm 12 mps 748 mmHg 69%
12:00 +9°C° 0.2 mm 12 mps 748 mmHg 65%
13:00 +9°C° 0.1 mm 12 mps 749 mmHg 68%
14:00 +8°C° 0.1 mm 12 mps 749 mmHg 70%
15:00 +8°C° 0.1 mm 12 mps 750 mmHg 73%
16:00 +8°C° 0.1 mm 11 mps 750 mmHg 72%
17:00 +7°C° 0.1 mm 10 mps 750 mmHg 71%
18:00 +7°C° 0.1 mm 9 mps 751 mmHg 70%
19:00 +6°C° 0 mm 9 mps 751 mmHg 70%
20:00 +5°C° 0 mm 9 mps 752 mmHg 70%
21:00 +5°C° 0 mm 9 mps 752 mmHg 70%
22:00 +5°C° 0 mm 9 mps 752 mmHg 71%
23:00 +3°C° 0 mm 9 mps 752 mmHg 72%

Tomorrow, 26 September, Saturday

Time Temperature Precipitation Wind Pressure Humidity
00:00 +4°C° 0 mm 8 mps 752 mmHg 73%
01:00 +4°C° 0 mm 8 mps 752 mmHg 75%
02:00 +2°C° 0 mm 8 mps 752 mmHg 77%
03:00 +2°C° 0 mm 8 mps 753 mmHg 79%
04:00 +2°C° 0 mm 8 mps 753 mmHg 79%
05:00 +2°C° 0 mm 8 mps 753 mmHg 80%
06:00 +2°C° 0 mm 8 mps 753 mmHg 80%
07:00 +5°C° 0 mm 8 mps 753 mmHg 77%
08:00 +6°C° 0 mm 8 mps 754 mmHg 75%
09:00 +7°C° 0 mm 9 mps 754 mmHg 72%
10:00 +8°C° 0.1 mm 9 mps 754 mmHg 71%
11:00 +8°C° 0.1 mm 9 mps 754 mmHg 69%
12:00 +9°C° 0.1 mm 10 mps 755 mmHg 67%
13:00 +8°C° 0.1 mm 9 mps 755 mmHg 69%
14:00 +8°C° 0.1 mm 9 mps 755 mmHg 70%
15:00 +8°C° 0.1 mm 9 mps 756 mmHg 72%
16:00 +7°C° 0 mm 9 mps 756 mmHg 73%
17:00 +7°C° 0 mm 8 mps 756 mmHg 74%
18:00 +7°C° 0 mm 8 mps 756 mmHg 75%
19:00 +6°C° 0 mm 8 mps 756 mmHg 75%
20:00 +6°C° 0 mm 8 mps 756 mmHg 76%
21:00 +6°C° 0 mm 8 mps 757 mmHg 76%
22:00 +5°C° 0 mm 8 mps 756 mmHg 78%
23:00 +5°C° 0 mm 8 mps 756 mmHg 80%

Day after tomorrow, 27 September, Sunday

Time Temperature Precipitation Wind Pressure Humidity
00:00 +5°C° 0 mm 8 mps 756 mmHg 82%
01:00 +5°C° 0 mm 8 mps 756 mmHg 81%
02:00 +5°C° 0 mm 8 mps 756 mmHg 80%
03:00 +5°C° 0 mm 8 mps 756 mmHg 79%
04:00 +5°C° 0 mm 8 mps 756 mmHg 79%
05:00 +5°C° 0 mm 8 mps 756 mmHg 79%
06:00 +5°C° 0 mm 7 mps 756 mmHg 79%
07:00 +6°C° 0 mm 7 mps 756 mmHg 78%
08:00 +6°C° 0 mm 7 mps 756 mmHg 78%
09:00 +8°C° 0 mm 7 mps 756 mmHg 77%
10:00 +8°C° 0 mm 7 mps 756 mmHg 75%
11:00 +9°C° 0 mm 6 mps 756 mmHg 74%
12:00 +9°C° 0 mm 6 mps 756 mmHg 72%
13:00 +10°C° 0 mm 5 mps 756 mmHg 71%
14:00 +10°C° 0 mm 5 mps 755 mmHg 70%
15:00 +10°C° 0 mm 5 mps 755 mmHg 69%
16:00 +10°C° 0 mm 4 mps 755 mmHg 73%
17:00 +9°C° 0 mm 3 mps 755 mmHg 78%
18:00 +8°C° 0 mm 3 mps 755 mmHg 83%
19:00 +7°C° 0 mm 2 mps 755 mmHg 84%
20:00 +7°C° 0 mm 2 mps 755 mmHg 85%
21:00 +6°C° 0 mm 2 mps 755 mmHg 86%
22:00 +6°C° 0 mm 2 mps 755 mmHg 85%
23:00 +6°C° 0 mm 2 mps 755 mmHg 84%

28 September, Monday

Time Temperature Precipitation Wind Pressure Humidity
00:00 +7°C° 0 mm 1 mps 754 mmHg 83%
01:00 +6°C° 0 mm 2 mps 754 mmHg 80%
02:00 +6°C° 0 mm 2 mps 754 mmHg 77%
03:00 +6°C° 0 mm 2 mps 753 mmHg 74%
04:00 +6°C° 0 mm 2 mps 753 mmHg 71%
05:00 +6°C° 0 mm 2 mps 753 mmHg 69%
06:00 +7°C° 0 mm 2 mps 753 mmHg 66%
07:00 +8°C° 0 mm 2 mps 752 mmHg 67%
08:00 +9°C° 0 mm 2 mps 752 mmHg 67%
09:00 +10°C° 0 mm 2 mps 752 mmHg 68%
10:00 +10°C° 0.1 mm 3 mps 752 mmHg 74%
11:00 +11°C° 0.1 mm 3 mps 751 mmHg 79%
12:00 +12°C° 0.1 mm 4 mps 751 mmHg 85%
13:00 +13°C° 0 mm 4 mps 751 mmHg 83%
14:00 +15°C° 0 mm 4 mps 751 mmHg 80%
15:00 +16°C° 0 mm 5 mps 750 mmHg 78%
16:00 +15°C° 0.1 mm 4 mps 751 mmHg 83%
17:00 +14°C° 0.1 mm 3 mps 751 mmHg 88%
18:00 +13°C° 0.1 mm 3 mps 751 mmHg 92%
19:00 +13°C° 0.3 mm 3 mps 751 mmHg 91%
20:00 +12°C° 0.3 mm 3 mps 751 mmHg 90%
21:00 +12°C° 0.3 mm 3 mps 752 mmHg 88%
22:00 +11°C° 0 mm 3 mps 752 mmHg 89%
23:00 +10°C° 0 mm 3 mps 752 mmHg 90%

29 September, Tuesday

Time Temperature Precipitation Wind Pressure Humidity
00:00 +8°C° 0 mm 4 mps 753 mmHg 90%
01:00 +9°C° 0 mm 3 mps 753 mmHg 90%
02:00 +8°C° 0 mm 3 mps 753 mmHg 90%
03:00 +8°C° 0 mm 3 mps 753 mmHg 90%
04:00 +8°C° 0 mm 2 mps 754 mmHg 90%
05:00 +7°C° 0 mm 2 mps 754 mmHg 90%
06:00 +7°C° 0 mm 2 mps 754 mmHg 91%
07:00 +8°C° 0 mm 2 mps 754 mmHg 87%
08:00 +10°C° 0 mm 2 mps 754 mmHg 83%
09:00 +12°C° 0 mm 2 mps 755 mmHg 80%
10:00 +13°C° 0 mm 2 mps 755 mmHg 75%
11:00 +14°C° 0 mm 2 mps 755 mmHg 70%
12:00 +15°C° 0 mm 2 mps 755 mmHg 65%
13:00 +15°C° 0 mm 2 mps 754 mmHg 65%
14:00 +15°C° 0 mm 2 mps 754 mmHg 64%
15:00 +15°C° 0 mm 2 mps 754 mmHg 64%
16:00 +14°C° 0 mm 2 mps 754 mmHg 69%
17:00 +13°C° 0 mm 2 mps 754 mmHg 75%
18:00 +10°C° 0 mm 2 mps 754 mmHg 80%
19:00 +10°C° 0 mm 2 mps 754 mmHg 81%
20:00 +10°C° 0 mm 1 mps 753 mmHg 82%
21:00 +9°C° 0 mm 1 mps 753 mmHg 83%
22:00 +10°C° 0 mm 1 mps 753 mmHg 81%
23:00 +10°C° 0 mm 1 mps 753 mmHg 79%

30 September, Wednesday

Time Temperature Precipitation Wind Pressure Humidity
00:00 +10°C° 0 mm 1 mps 752 mmHg 76%
01:00 +9°C° 0 mm 0 mps 752 mmHg 78%
02:00 +8°C° 0 mm 0 mps 751 mmHg 80%
03:00 +7°C° 0 mm 0 mps 751 mmHg 82%
04:00 +7°C° 0 mm 0 mps 750 mmHg 83%
05:00 +7°C° 0 mm 0 mps 750 mmHg 84%
06:00 +7°C° 0 mm 0 mps 750 mmHg 85%
07:00 +9°C° 0 mm 1 mps 749 mmHg 82%
08:00 +10°C° 0 mm 1 mps 749 mmHg 79%
09:00 +12°C° 0 mm 1 mps 748 mmHg 77%
10:00 +12°C° 0 mm 2 mps 748 mmHg 73%
11:00 +13°C° 0 mm 2 mps 747 mmHg 69%
12:00 +13°C° 0 mm 3 mps 747 mmHg 66%
13:00 +13°C° 0 mm 4 mps 746 mmHg 68%
14:00 +13°C° 0 mm 4 mps 745 mmHg 70%
15:00 +13°C° 0 mm 5 mps 744 mmHg 73%
16:00 +12°C° 0 mm 5 mps 743 mmHg 77%
17:00 +12°C° 0 mm 5 mps 743 mmHg 81%
18:00 +10°C° 0 mm 5 mps 742 mmHg 85%
19:00 +10°C° 0.2 mm 5 mps 741 mmHg 88%
20:00 +12°C° 0.2 mm 5 mps 741 mmHg 91%
21:00 +12°C° 0.2 mm 5 mps 740 mmHg 94%
22:00 +12°C° 0 mm 5 mps 739 mmHg 94%
23:00 +12°C° 0 mm 5 mps 738 mmHg 94%
Show more